Flag for Turkey Weather past 2 weeks in Ankara, Turkey

Now
46 °F

Clear.


Feels Like: 46 °F
Forecast: 41 / 70 °F
Wind: 2 mph from North

Location: Ankara / Esenboga

Current Time: Oct 2, 2014 at 5:47:31 AM

Latest Report: Oct 2, 2014 at 4:50 AM


Visibility: 10 mi

Pressure: 30.21 "Hg

Humidity: 76%

Dew point: 39 °F

Location of AnkaraLocation

Historic Weather in Ankara — Graph

°F

Ankara temperature yesterday

Maximum temperature yesterday: 72 °F (at 4:50 PM)
Minimum temperature yesterday: 37 °F (at 7:20 AM)
Average temperature yesterday: 54 °F

Past Weeks' High & Low Weather Summary

 TemperatureHumidityPressure
High79 °F (Sep 23, 4:20 PM)100% (Sep 18, 11:20 PM)30.33 "Hg (Sep 18, 11:20 PM)
Low37 °F (Oct 1, 7:20 AM)14% (Sep 26, 2:50 PM)29.62 "Hg (Sep 28, 4:50 AM)
Average57 °F64%30.03 "Hg
* Reported Sep 17 4:20 AM — Oct 2 4:50 AM, Ankara, Weather by CustomWeather, © 2014

Note: Actual official high and low records may vary slightly from our data, if they occured in-between our weather recording intervals... More about our weather records

Advertising

Ankara weather history for previous 24 hours

 ConditionsComfort  
Time TempWeatherWind HumidityBarometerVisibility
4:50 AM
Oct 2
46 °FClear.2 mph76%30.21 "Hg10 mi
4:20 AM46 °FClear.9 mph76%30.21 "Hg10 mi
3:50 AM46 °FClear.6 mph76%30.21 "Hg10 mi
3:20 AM48 °FClear.2 mph71%30.21 "Hg10 mi
2:50 AM46 °FClear.5 mph76%30.21 "Hg10 mi
2:20 AM46 °FClear.1 mph76%30.21 "Hg10 mi
1:50 AM48 °FClear.2 mph71%30.21 "Hg10 mi
1:20 AM48 °FPassing clouds.5 mph71%30.21 "HgN/A
12:50 AM48 °FClear.2 mph71%30.21 "Hg10 mi
12:20 AM50 °FClear.2 mph67%30.21 "Hg10 mi
11:50 PM
Oct 1
52 °FClear.3 mph58%30.21 "Hg10 mi
11:20 PM52 °FClear.6 mph58%30.21 "Hg10 mi
10:50 PM52 °FPassing clouds.5 mph58%30.21 "HgN/A
10:20 PM54 °FClear.6 mph58%30.21 "Hg10 mi
9:50 PM55 °FClear.7 mph55%30.21 "Hg10 mi
9:20 PM55 °FPassing clouds.6 mph59%30.21 "HgN/A
8:50 PM55 °FClear.7 mph59%30.21 "Hg10 mi
8:20 PM59 °FClear.9 mph48%30.18 "Hg10 mi
7:50 PM61 °FClear.6 mph48%30.18 "Hg10 mi
7:20 PM64 °FPassing clouds.5 mph30%30.18 "HgN/A
6:50 PM66 °FPassing clouds.5 mph37%30.15 "HgN/A
6:20 PM68 °FSunny.2 mph35%30.15 "Hg10 mi
5:50 PM70 °FSunny.5 mph25%30.15 "Hg10 mi
5:20 PM70 °FPassing clouds.5 mph23%30.15 "HgN/A
4:50 PM72 °FPassing clouds.3 mph22%30.15 "HgN/A
4:20 PM70 °FPassing clouds.3 mph23%30.15 "HgN/A
3:50 PM70 °FPassing clouds.5 mph21%30.15 "HgN/A
3:20 PM70 °FPassing clouds.2 mph23%30.15 "HgN/A
2:50 PM68 °FPassing clouds.3 mph26%30.18 "HgN/A
2:20 PM68 °FPassing clouds.3 mph23%30.18 "HgN/A
1:50 PM68 °FPassing clouds.3 mph23%30.18 "HgN/A
1:20 PM66 °FPassing clouds.2 mph26%30.21 "HgN/A
12:50 PM64 °FPassing clouds.3 mph30%30.21 "HgN/A
12:20 PM64 °FPassing clouds.3 mph32%30.21 "HgN/A
11:50 AM63 °FSunny.3 mph37%30.21 "Hg10 mi
11:20 AM61 °FSunny.2 mph42%30.24 "Hg10 mi
10:50 AM61 °FSunny.2 mph45%30.24 "Hg10 mi
10:20 AM55 °FSunny.2 mph55%30.24 "Hg10 mi
9:50 AM52 °FSunny.2 mph58%30.24 "Hg10 mi
9:20 AM50 °FSunny.1 mph67%30.24 "Hg10 mi
8:50 AM46 °FSunny.2 mph71%30.24 "Hg10 mi
8:20 AM45 °FSunny.1 mph76%30.24 "Hg10 mi
7:50 AM41 °FSunny.2 mph87%30.24 "Hg10 mi
7:20 AM37 °FClear.2 mph93%30.24 "Hg10 mi
6:50 AM39 °FClear.2 mph87%30.24 "Hg10 mi
6:20 AM39 °FClear.2 mph87%30.24 "Hg10 mi
5:50 AM39 °FClear.2 mph87%30.24 "Hg10 mi
5:20 AM39 °FClear.2 mph87%30.24 "Hg10 mi
Weather by CustomWeather, © 2014

See weather overviewHow to use our weather pages